Location: Amsterdam
(30.7274°N, 84.4357°W)
Time: 12:35:43
(UTC+00:00)

Tiros 1 - Pass Details

Date: 25 February 2026
Orbit: 618 x 650 km, 48.4° (Epoch: 16 March)

Event Time Altitude Azimuth Distance (km) Brightness Sun altitude
Rises 08:52:49 0° 186° (S) 2,935 - -42.5°
Reaches altitude 10° 08:56:00 10° 164° (SSE) 2,024 - -41.8°
Maximum altitude 08:58:43 15° 128° (SE) 1,691 - -41.3°
Drops below altitude 10° 09:01:25 10° 92° (E) 2,019 - -40.7°
Exits shadow 09:01:32 10° 91° (E) 2,046 10.3 -40.7°
Sets 09:04:35 0° 70° (ENE) 2,924 11.4 -40.0°
